,,,PA_Meas_PMT16A,,PR_Meas_QMR101_102,,RH_Meas_QMH101,,SR_Meas_QMS101,,TA_Meas_QMH101,,GenWind,,GenWind,
date,time,status,PA,status,PR,status,RH,status,SR,status,TA,status,DirAvg,status,SpdAvg,
2012-04-02, 00:00:04,VALID,1012.93,VALID,0,VALID,104,VALID,0.112112,VALID,24.0837,VALID,65,VALID,0.655469,
2012-04-02, 00:01:04,VALID,1012.89,VALID,0,VALID,104,VALID,0.112112,VALID,24.0429,VALID,57,VALID,0.222266,
2012-04-02, 00:02:04,VALID,1012.87,VALID,0,VALID,104,VALID,0.112112,VALID,24.0429,VALID,70,VALID,1.19961,
2012-04-02, 00:03:04,VALID,1012.82,VALID,0,VALID,104,VALID,0.112112,VALID,24.0429,VALID,76,VALID,0.710156,
2012-04-02, 00:04:04,VALID,1012.77,VALID,0,VALID,104,VALID,0.112112,VALID,24.0429,VALID,74,VALID,0.960938,
2012-04-02, 00:05:04,VALID,1012.76,VALID,0,VALID,104,VALID,0,VALID,24.0235,VALID,80,VALID,1.15469,
2012-04-02, 00:06:04,VALID,1012.76,VALID,0,VALID,104,VALID,0.112112,VALID,24.0448,VALID,55,VALID,1.80742,
2012-04-02, 00:07:04,VALID,1012.76,VALID,0,VALID,104,VALID,0.112112,VALID,24.0235,VALID,70,VALID,0.782812,
2012-04-02, 00:08:04,VALID,1012.76,VALID,0,VALID,104,VALID,0.112112,VALID,24.0235,VALID,99,VALID,1.13125,
2012-04-02, 00:09:04,VALID,1012.74,VALID,0,VALID,104,VALID,0.112112,VALID,24.0235,VALID,63,VALID,0.583203,
2012-04-02, 00:10:04,VALID,1012.74,VALID,0,VALID,104,VALID,0.112112,VALID,24.0448,VALID,93,VALID,0.989844,
2012-04-02, 00:11:04,VALID,1012.73,VALID,0,VALID,104,VALID,0.112112,VALID,24.0235,VALID,97,VALID,0.785547,
2012-04-02, 00:12:04,VALID,1012.74,VALID,0,VALID,104,VALID,0,VALID,24.0253,VALID,101,VALID,0.222656,
2012-04-02, 00:13:04,VALID,1012.72,VALID,0,VALID,104,VALID,0.112112,VALID,24.0448,VALID,100,VALID,0.535547,
2012-04-02, 00:14:04,VALID,1012.7,VALID,0,VALID,104,VALID,0.112112,VALID,24.004,VALID,76,VALID,0.565234,
2012-04-02, 00:15:04,VALID,1012.69,VALID,0,VALID,104,VALID,0.112112,VALID,24.0253,VALID,66,VALID,1.06875,
2012-04-02, 00:16:04,VALID,1012.66,VALID,0,VALID,104,VALID,0.112112,VALID,24.0235,VALID,71,VALID,0.779297,
2012-04-02, 00:17:04,VALID,1012.65,VALID,0,VALID,104,VALID,0.112112,VALID,24.004,VALID,66,VALID,0.754687,
2012-04-02, 00:18:04,VALID,1012.61,VALID,0,VALID,104,VALID,0.112112,VALID,24.0253,VALID,90,VALID,1.07383,
2012-04-02, 00:19:04,VALID,1012.62,VALID,0,VALID,104,VALID,0.112112,VALID,24.0058,VALID,72,VALID,1.23789,
2012-04-02, 00:20:04,VALID,1012.6,VALID,0,VALID,104,VALID,0.112112,VALID,24.0058,VALID,71,VALID,1.05625,
2012-04-02, 00:21:04,VALID,1012.56,VALID,0,VALID,104,VALID,0,VALID,23.9863,VALID,92,VALID,0.901172,
2012-04-02, 00:22:04,VALID,1012.55,VALID,0,VALID,104,VALID,0,VALID,23.965,VALID,57,VALID,0.7875,
2012-04-02, 00:23:04,VALID,1012.52,VALID,0,VALID,104,VALID,0,VALID,24.0058,VALID,126,VALID,1.65313,
2012-04-02, 00:24:04,VALID,1012.5,VALID,0,VALID,104,VALID,0,VALID,24.0253,VALID,104,VALID,0.994922,
2012-04-02, 00:25:04,VALID,1012.48,VALID,0,VALID,104,VALID,0.112112,VALID,24.0253,VALID,121,VALID,1.18984,
2012-04-02, 00:26:04,VALID,1012.46,VALID,0,VALID,104,VALID,0,VALID,24.004,VALID,106,VALID,0.908594,
2012-04-02, 00:27:04,VALID,1012.44,VALID,0,VALID,104,VALID,0,VALID,24.0253,VALID,98,VALID,1.04688,
2012-04-02, 00:28:04,VALID,1012.43,VALID,0,VALID,104,VALID,0,VALID,24.0058,VALID,110,VALID,1.00703,
2012-04-02, 00:29:04,VALID,1012.43,VALID,0,VALID,104,VALID,0,VALID,23.9863,VALID,97,VALID,1.24063,
2012-04-02, 00:30:04,VALID,1012.43,VALID,0,VALID,104,VALID,0,VALID,23.9863,VALID,125,VALID,0.467969,
2012-04-02, 00:31:04,VALID,1012.4,VALID,0,VALID,104,VALID,0,VALID,23.9668,VALID,120,VALID,0.642187,
2012-04-02, 00:32:04,VALID,1012.41,VALID,0,VALID,104,VALID,0,VALID,23.9473,VALID,123,VALID,0.619922,
2012-04-02, 00:33:04,VALID,1012.41,VALID,0,VALID,104,VALID,0,VALID,23.9278,VALID,132,VALID,1.06484,
2012-04-02, 00:34:04,VALID,1012.38,VALID,0,VALID,104,VALID,0,VALID,23.9084,VALID,136,VALID,0.154687,
2012-04-02, 00:35:04,VALID,1012.41,VALID,0,VALID,104,VALID,0,VALID,23.8871,VALID,137,VALID,0.0984375,
2012-04-02, 00:36:04,VALID,1012.39,VALID,0,VALID,104,VALID,0,VALID,23.8889,VALID,137,VALID,0.798437,
2012-04-02, 00:37:04,VALID,1012.39,VALID,0,VALID,104,VALID,0,VALID,23.8676,VALID,137,VALID,0.339063,
2012-04-02, 00:38:04,VALID,1012.39,VALID,0,VALID,104,VALID,0,VALID,23.8694,VALID,137,VALID,0.215234,
2012-04-02, 00:39:04,VALID,1012.36,VALID,0,VALID,104,VALID,0,VALID,23.8694,VALID,151,VALID,0.305078,
2012-04-02, 00:40:04,VALID,1012.4,VALID,0,VALID,104,VALID,0,VALID,23.8499,VALID,112,VALID,1.01953,
2012-04-02, 00:41:04,VALID,1012.38,VALID,0,VALID,104,VALID,0,VALID,23.8286,VALID,104,VALID,0.955469,
2012-04-02, 00:42:04,VALID,1012.34,VALID,0,VALID,104,VALID,0,VALID,23.8499,VALID,117,VALID,0.314844,
2012-04-02, 00:43:04,VALID,1012.33,VALID,0,VALID,104,VALID,0,VALID,23.8499,VALID,93,VALID,0.486719,
2012-04-02, 00:44:04,VALID,1012.32,VALID,0,VALID,104,VALID,0,VALID,23.8499,VALID,93,VALID,0.632031,
2012-04-02, 00:45:04,VALID,1012.32,VALID,0,VALID,104,VALID,0,VALID,23.8499,VALID,101,VALID,0.738672,
2012-04-02, 00:46:04,VALID,1012.33,VALID,0,VALID,104,VALID,0,VALID,23.8499,VALID,100,VALID,0.565625,
2012-04-02, 00:47:04,VALID,1012.29,VALID,0,VALID,104,VALID,0,VALID,23.8499,VALID,88,VALID,1.20039,
2012-04-02, 00:48:04,VALID,1012.27,VALID,0,VALID,104,VALID,0,VALID,23.8694,VALID,126,VALID,0.757813,
2012-04-02, 00:49:04,VALID,1012.25,VALID,0,VALID,104,VALID,0,VALID,23.8889,VALID,120,VALID,0.889063,
2012-04-02, 00:50:04,VALID,1012.25,VALID,0,VALID,104,VALID,0,VALID,23.8694,VALID,116,VALID,0.692969,
2012-04-02, 00:51:04,VALID,1012.25,VALID,0,VALID,104,VALID,0,VALID,23.8694,VALID,106,VALID,1.2332,
2012-04-02, 00:52:04,VALID,1012.22,VALID,0,VALID,104,VALID,0,VALID,23.8694,VALID,111,VALID,0.420312,
2012-04-02, 00:53:04,VALID,1012.2,VALID,0,VALID,104,VALID,0,VALID,23.8676,VALID,114,VALID,0.870313,
2012-04-02, 00:54:04,VALID,1012.22,VALID,0,VALID,104,VALID,0,VALID,23.8676,VALID,86,VALID,0.462891,
2012-04-02, 00:55:04,VALID,1012.16,VALID,0,VALID,104,VALID,0,VALID,23.8694,VALID,136,VALID,0.733984,
2012-04-02, 00:56:04,VALID,1012.15,VALID,0,VALID,104,VALID,0,VALID,23.8676,VALID,106,VALID,0.819141,
2012-04-02, 00:57:04,VALID,1012.15,VALID,0,VALID,104,VALID,0,VALID,23.8889,VALID,119,VALID,1.07187,
2012-04-02, 00:58:04,VALID,1012.14,VALID,0,VALID,104,VALID,0,VALID,23.8889,VALID,119,VALID,0.942578,
2012-04-02, 00:59:04,VALID,1012.16,VALID,0,VALID,104,VALID,0,VALID,23.8889,VALID,85,VALID,0.246484,
2012-04-02, 01:00:04,VALID,1012.17,VALID,0,VALID,104,VALID,0,VALID,23.8889,VALID,87,VALID,0.00117188,
2012-04-02, 01:01:04,VALID,1012.13,VALID,0,VALID,104,VALID,0.112112,VALID,23.8694,VALID,107,VALID,0.0128906,
2012-04-02, 01:02:04,VALID,1012.13,VALID,0,VALID,104,VALID,0,VALID,23.8481,VALID,107,VALID,0.0988281,
2012-04-02, 01:03:04,VALID,1012.09,VALID,0,VALID,104,VALID,0,VALID,23.8499,VALID,107,VALID,0,
2012-04-02, 01:04:04,VALID,1012.07,VALID,0,VALID,104,VALID,0,VALID,23.8499,VALID,107,VALID,0,
2012-04-02, 01:05:04,VALID,1012.06,VALID,0,VALID,104,VALID,0,VALID,23.8304,VALID,107,VALID,0,
2012-04-02, 01:06:04,VALID,1012.01,VALID,0,VALID,104,VALID,0,VALID,23.8304,VALID,107,VALID,0,
2012-04-02, 01:07:04,VALID,1011.97,VALID,0,VALID,104,VALID,0,VALID,23.8109,VALID,107,VALID,0,
2012-04-02, 01:08:04,VALID,1011.96,VALID,0,VALID,104,VALID,0,VALID,23.7914,VALID,107,VALID,0,
2012-04-02, 01:09:04,VALID,1011.94,VALID,0,VALID,104,VALID,0,VALID,23.772,VALID,107,VALID,0,
2012-04-02, 01:10:04,VALID,1011.92,VALID,0,VALID,104,VALID,0,VALID,23.7312,VALID,107,VALID,0,
2012-04-02, 01:11:04,VALID,1011.94,VALID,0,VALID,104,VALID,0,VALID,23.7525,VALID,107,VALID,0,
2012-04-02, 01:12:04,VALID,1011.91,VALID,0,VALID,104,VALID,0,VALID,23.733,VALID,107,VALID,0,
2012-04-02, 01:13:04,VALID,1011.91,VALID,0,VALID,104,VALID,0,VALID,23.6922,VALID,107,VALID,0,
2012-04-02, 01:14:04,VALID,1011.92,VALID,0,VALID,104,VALID,0,VALID,23.6922,VALID,107,VALID,0,
2012-04-02, 01:15:04,VALID,1011.91,VALID,0,VALID,104,VALID,0,VALID,23.6745,VALID,107,VALID,0,
2012-04-02, 01:16:04,VALID,1011.87,VALID,0,VALID,104,VALID,0,VALID,23.655,VALID,107,VALID,0,
2012-04-02, 01:17:04,VALID,1011.86,VALID,0,VALID,104,VALID,0,VALID,23.6356,VALID,107,VALID,0,
2012-04-02, 01:18:04,VALID,1011.83,VALID,0,VALID,104,VALID,0,VALID,23.6161,VALID,107,VALID,0,
2012-04-02, 01:19:04,VALID,1011.81,VALID,0,VALID,104,VALID,0,VALID,23.5771,VALID,107,VALID,0,
2012-04-02, 01:20:04,VALID,1011.76,VALID,0,VALID,104,VALID,0,VALID,23.5576,VALID,107,VALID,0,
2012-04-02, 01:21:04,VALID,1011.74,VALID,0,VALID,104,VALID,0,VALID,23.5381,VALID,107,VALID,0.0429688,
2012-04-02, 01:22:04,VALID,1011.74,VALID,0,VALID,104,VALID,0,VALID,23.5381,VALID,106,VALID,0.343359,
2012-04-02, 01:23:04,VALID,1011.69,VALID,0,VALID,104,VALID,0,VALID,23.5186,VALID,75,VALID,0.702344,
2012-04-02, 01:24:04,VALID,1011.67,VALID,0,VALID,104,VALID,0,VALID,23.5186,VALID,73,VALID,0.621875,
2012-04-02, 01:25:04,VALID,1011.64,VALID,0,VALID,104,VALID,0,VALID,23.5381,VALID,59,VALID,0.862109,
2012-04-02, 01:26:04,VALID,1011.63,VALID,0,VALID,104,VALID,0,VALID,23.5381,VALID,59,VALID,0.777734,
2012-04-02, 01:27:04,VALID,1011.62,VALID,0,VALID,104,VALID,0,VALID,23.5576,VALID,57,VALID,0.426172,
2012-04-02, 01:28:04,VALID,1011.61,VALID,0,VALID,104,VALID,0,VALID,23.5771,VALID,57,VALID,0.25625,
2012-04-02, 01:29:04,VALID,1011.63,VALID,0,VALID,104,VALID,0,VALID,23.5576,VALID,62,VALID,0.554688,
2012-04-02, 01:30:04,VALID,1011.61,VALID,0,VALID,104,VALID,0,VALID,23.5771,VALID,83,VALID,0.0996094,
2012-04-02, 01:31:04,VALID,1011.66,VALID,0,VALID,104,VALID,0,VALID,23.5771,VALID,83,VALID,0.132031,
2012-04-02, 01:32:04,VALID,1011.64,VALID,0,VALID,104,VALID,0,VALID,23.5771,VALID,84,VALID,0.572266,
2012-04-02, 01:33:04,VALID,1011.66,VALID,0,VALID,104,VALID,0,VALID,23.5966,VALID,95,VALID,0.439063,
2012-04-02, 01:34:04,VALID,1011.65,VALID,0,VALID,104,VALID,0,VALID,23.5771,VALID,137,VALID,0.751562,
2012-04-02, 01:35:04,VALID,1011.65,VALID,0,VALID,104,VALID,0,VALID,23.5576,VALID,151,VALID,0.883984,
2012-04-02, 01:36:04,VALID,1011.65,VALID,0,VALID,104,VALID,0,VALID,23.5576,VALID,155,VALID,0.835156,
2012-04-02, 01:37:04,VALID,1011.64,VALID,0,VALID,104,VALID,0,VALID,23.5381,VALID,155,VALID,0.798437,
2012-04-02, 01:38:04,VALID,1011.63,VALID,0,VALID,104,VALID,0,VALID,23.5576,VALID,151,VALID,0.632813,
2012-04-02, 01:39:04,VALID,1011.6,VALID,0,VALID,104,VALID,0,VALID,23.5381,VALID,151,VALID,0.542969,
2012-04-02, 01:40:04,VALID,1011.58,VALID,0,VALID,104,VALID,0,VALID,23.5169,VALID,151,VALID,0.325781,
2012-04-02, 01:41:04,VALID,1011.59,VALID,0,VALID,104,VALID,0,VALID,23.5381,VALID,151,VALID,0.316016,
2012-04-02, 01:42:04,VALID,1011.58,VALID,0,VALID,104,VALID,0,VALID,23.5186,VALID,151,VALID,0.562109,
2012-04-02, 01:43:04,VALID,1011.57,VALID,0,VALID,104,VALID,0,VALID,23.5381,VALID,151,VALID,0.192969,
2012-04-02, 01:44:04,VALID,1011.53,VALID,0,VALID,104,VALID,0,VALID,23.5399,VALID,151,VALID,0.021875,
2012-04-02, 01:45:04,VALID,1011.54,VALID,0,VALID,104,VALID,0,VALID,23.5186,VALID,151,VALID,0.315234,
2012-04-02, 01:46:04,VALID,1011.53,VALID,0,VALID,104,VALID,0,VALID,23.5186,VALID,151,VALID,0.0429688,
2012-04-02, 01:47:04,VALID,1011.52,VALID,0,VALID,104,VALID,0,VALID,23.5381,VALID,151,VALID,0,
2012-04-02, 01:48:04,VALID,1011.52,VALID,0,VALID,104,VALID,0,VALID,23.5381,VALID,151,VALID,0.426172,
2012-04-02, 01:49:04,VALID,1011.5,VALID,0,VALID,104,VALID,0,VALID,23.5186,VALID,151,VALID,0.252344,
2012-04-02, 01:50:04,VALID,1011.51,VALID,0,VALID,104,VALID,0,VALID,23.5381,VALID,127,VALID,0.627734,
2012-04-02, 01:51:04,VALID,1011.49,VALID,0,VALID,104,VALID,0,VALID,23.5381,VALID,127,VALID,0.169531,
2012-04-02, 01:52:04,VALID,1011.5,VALID,0,VALID,104,VALID,0,VALID,23.5381,VALID,127,VALID,0.268359,
2012-04-02, 01:53:04,VALID,1011.5,VALID,0,VALID,104,VALID,0,VALID,23.5381,VALID,127,VALID,0.0992187,
2012-04-02, 01:54:04,VALID,1011.49,VALID,0,VALID,104,VALID,0,VALID,23.5381,VALID,127,VALID,0.0140625,
2012-04-02, 01:55:04,VALID,1011.47,VALID,0,VALID,104,VALID,0,VALID,23.5186,VALID,127,VALID,0,
2012-04-02, 01:56:04,VALID,1011.46,VALID,0,VALID,104,VALID,0,VALID,23.5186,VALID,127,VALID,0.0015625,
2012-04-02, 01:57:04,VALID,1011.46,VALID,0,VALID,104,VALID,0,VALID,23.4974,VALID,127,VALID,0.0304688,
2012-04-02, 01:58:04,VALID,1011.42,VALID,0,VALID,104,VALID,0,VALID,23.5186,VALID,127,VALID,0.0539063,
2012-04-02, 01:59:04,VALID,1011.41,VALID,0,VALID,104,VALID,0,VALID,23.5399,VALID,127,VALID,0,
2012-04-02, 02:00:04,VALID,1011.43,VALID,0,VALID,104,VALID,0,VALID,23.5186,VALID,118,VALID,0.704687,
2012-04-02, 02:01:04,VALID,1011.38,VALID,0,VALID,104,VALID,0,VALID,23.5381,VALID,118,VALID,0.619141,
2012-04-02, 02:02:04,VALID,1011.36,VALID,0,VALID,104,VALID,0,VALID,23.5594,VALID,118,VALID,0.509375,
2012-04-02, 02:03:04,VALID,1011.37,VALID,0,VALID,104,VALID,0,VALID,23.5381,VALID,118,VALID,0.401172,
2012-04-02, 02:04:04,VALID,1011.35,VALID,0,VALID,104,VALID,0,VALID,23.5576,VALID,118,VALID,0.487891,
2012-04-02, 02:05:04,VALID,1011.35,VALID,0,VALID,104,VALID,0,VALID,23.5576,VALID,118,VALID,0.501953,
2012-04-02, 02:06:04,VALID,1011.36,VALID,0,VALID,104,VALID,0,VALID,23.5594,VALID,118,VALID,0.640625,
2012-04-02, 02:07:04,VALID,1011.31,VALID,0,VALID,104,VALID,0,VALID,23.5594,VALID,118,VALID,0.492578,
2012-04-02, 02:08:04,VALID,1011.31,VALID,0,VALID,104,VALID,0,VALID,23.5381,VALID,118,VALID,0.296094,
2012-04-02, 02:09:04,VALID,1011.31,VALID,0,VALID,104,VALID,0,VALID,23.5576,VALID,118,VALID,0.419922,
2012-04-02, 02:10:04,VALID,1011.31,VALID,0,VALID,104,VALID,0,VALID,23.5381,VALID,118,VALID,0.415625,
2012-04-02, 02:11:04,VALID,1011.28,VALID,0,VALID,104,VALID,0,VALID,23.5576,VALID,118,VALID,0.339844,
2012-04-02, 02:12:04,VALID,1011.26,VALID,0,VALID,104,VALID,0,VALID,23.5576,VALID,104,VALID,0.569141,
2012-04-02, 02:13:04,VALID,1011.21,VALID,0,VALID,104,VALID,0,VALID,23.5576,VALID,82,VALID,0.986328,
2012-04-02, 02:14:04,VALID,1011.21,VALID,0,VALID,104,VALID,0,VALID,23.5576,VALID,103,VALID,0.542188,
2012-04-02, 02:15:04,VALID,1011.17,VALID,0,VALID,104,VALID,0,VALID,23.5576,VALID,92,VALID,0.491797,
2012-04-02, 02:16:04,VALID,1011.15,VALID,0,VALID,104,VALID,0,VALID,23.5576,VALID,91,VALID,0.626953,
2012-04-02, 02:17:04,VALID,1011.15,VALID,0,VALID,104,VALID,0,VALID,23.5984,VALID,91,VALID,0.745313,
2012-04-02, 02:18:04,VALID,1011.13,VALID,0,VALID,104,VALID,0,VALID,23.5771,VALID,91,VALID,0.613672,
2012-04-02, 02:19:04,VALID,1011.12,VALID,0,VALID,104,VALID,0,VALID,23.5984,VALID,89,VALID,0.630078,
2012-04-02, 02:20:04,VALID,1011.09,VALID,0,VALID,104,VALID,0,VALID,23.5771,VALID,90,VALID,0.589453,
2012-04-02, 02:21:04,VALID,1011.06,VALID,0,VALID,104,VALID,0,VALID,23.5771,VALID,108,VALID,0.227344,
2012-04-02, 02:22:04,VALID,1011.07,VALID,0,VALID,104,VALID,0,VALID,23.5771,VALID,100,VALID,0.603125,
2012-04-02, 02:23:04,VALID,1011.07,VALID,0,VALID,104,VALID,0,VALID,23.5966,VALID,78,VALID,0.760156,
2012-04-02, 02:24:04,VALID,1011.07,VALID,0,VALID,104,VALID,0,VALID,23.5966,VALID,78,VALID,0.558203,
2012-04-02, 02:25:04,VALID,1011.06,VALID,0,VALID,104,VALID,0,VALID,23.5771,VALID,78,VALID,0.545313,
2012-04-02, 02:26:04,VALID,1011.07,VALID,0,VALID,104,VALID,0,VALID,23.5753,VALID,78,VALID,0.5125,
2012-04-02, 02:27:04,VALID,1011.05,VALID,0,VALID,104,VALID,0,VALID,23.5966,VALID,92,VALID,0.631641,
2012-04-02, 02:28:04,VALID,1011.09,VALID,0,VALID,104,VALID,0,VALID,23.5753,VALID,90,VALID,0.250781,
2012-04-02, 02:29:04,VALID,1011.06,VALID,0,VALID,104,VALID,0,VALID,23.5558,VALID,90,VALID,0.308203,
2012-04-02, 02:30:04,VALID,1011.07,VALID,0,VALID,104,VALID,0.112112,VALID,23.5771,VALID,90,VALID,0.144141,
2012-04-02, 02:31:04,VALID,1011.08,VALID,0,VALID,104,VALID,0,VALID,23.5576,VALID,90,VALID,0.00585938,
2012-04-02, 02:32:04,VALID,1011.04,VALID,0,VALID,104,VALID,0,VALID,23.5186,VALID,90,VALID,0.534766,
2012-04-02, 02:33:04,VALID,1011.07,VALID,0,VALID,104,VALID,0,VALID,23.4992,VALID,103,VALID,0.564844,
2012-04-02, 02:34:04,VALID,1011.03,VALID,0,VALID,104,VALID,0,VALID,23.4797,VALID,107,VALID,0.640234,
2012-04-02, 02:35:04,VALID,1011.04,VALID,0,VALID,104,VALID,0,VALID,23.4797,VALID,125,VALID,0.630078,
2012-04-02, 02:36:04,VALID,1011.02,VALID,0,VALID,104,VALID,0,VALID,23.4602,VALID,125,VALID,0.472656,
2012-04-02, 02:37:04,VALID,1011,VALID,0,VALID,104,VALID,0,VALID,23.4194,VALID,117,VALID,0.746094,
2012-04-02, 02:38:04,VALID,1011,VALID,0,VALID,104,VALID,0,VALID,23.4407,VALID,117,VALID,0.487891,
2012-04-02, 02:39:04,VALID,1010.94,VALID,0,VALID,104,VALID,0,VALID,23.4407,VALID,116,VALID,0.462891,
2012-04-02, 02:40:04,VALID,1010.91,VALID,0,VALID,104,VALID,0,VALID,23.4212,VALID,106,VALID,0.708594,
2012-04-02, 02:41:04,VALID,1010.86,VALID,0,VALID,104,VALID,0,VALID,23.4212,VALID,107,VALID,0.554688,
2012-04-02, 02:42:04,VALID,1010.82,VALID,0,VALID,104,VALID,0,VALID,23.4212,VALID,108,VALID,0.458594,
2012-04-02, 02:43:04,VALID,1010.77,VALID,0,VALID,104,VALID,0,VALID,23.4212,VALID,107,VALID,0.508203,
2012-04-02, 02:44:04,VALID,1010.71,VALID,0,VALID,104,VALID,0,VALID,23.4212,VALID,89,VALID,0.855078,
2012-04-02, 02:45:04,VALID,1010.69,VALID,0,VALID,104,VALID,0,VALID,23.4407,VALID,101,VALID,0.914453,
2012-04-02, 02:46:04,VALID,1010.65,VALID,0,VALID,104,VALID,0,VALID,23.4407,VALID,97,VALID,1.04258,
2012-04-02, 02:47:04,VALID,1010.67,VALID,0,VALID,104,VALID,0,VALID,23.4602,VALID,94,VALID,0.89375,
2012-04-02, 02:48:04,VALID,1010.65,VALID,0,VALID,104,VALID,0,VALID,23.4602,VALID,83,VALID,1.30586,
2012-04-02, 02:49:04,VALID,1010.68,VALID,0,VALID,104,VALID,0,VALID,23.4797,VALID,82,VALID,0.717969,
2012-04-02, 02:50:04,VALID,1010.69,VALID,0,VALID,104,VALID,0,VALID,23.4992,VALID,73,VALID,0.504297,
2012-04-02, 02:51:04,VALID,1010.73,VALID,0,VALID,104,VALID,0,VALID,23.4992,VALID,58,VALID,0.686719,
2012-04-02, 02:52:04,VALID,1010.72,VALID,0,VALID,104,VALID,0,VALID,23.4992,VALID,67,VALID,0.469141,
2012-04-02, 02:53:04,VALID,1010.71,VALID,0,VALID,104,VALID,0,VALID,23.4992,VALID,67,VALID,0.382422,
2012-04-02, 02:54:04,VALID,1010.69,VALID,0,VALID,104,VALID,0,VALID,23.4779,VALID,69,VALID,0.607422,
2012-04-02, 02:55:04,VALID,1010.7,VALID,0,VALID,104,VALID,0,VALID,23.4992,VALID,84,VALID,0.176172,
2012-04-02, 02:56:04,VALID,1010.68,VALID,0,VALID,104,VALID,0.112112,VALID,23.4797,VALID,84,VALID,0.225781,
2012-04-02, 02:57:04,VALID,1010.68,VALID,0,VALID,104,VALID,0,VALID,23.4797,VALID,84,VALID,0.310156,
2012-04-02, 02:58:04,VALID,1010.66,VALID,0,VALID,104,VALID,0,VALID,23.4779,VALID,116,VALID,0.561719,
2012-04-02, 02:59:04,VALID,1010.67,VALID,0,VALID,104,VALID,0,VALID,23.4992,VALID,108,VALID,0.821094,
2012-04-02, 03:00:04,VALID,1010.66,VALID,0,VALID,104,VALID,0,VALID,23.5186,VALID,98,VALID,0.803906,
2012-04-02, 03:01:04,VALID,1010.64,VALID,0,VALID,104,VALID,0.112112,VALID,23.4974,VALID,102,VALID,0.777734,
2012-04-02, 03:02:04,VALID,1010.63,VALID,0,VALID,104,VALID,0.112112,VALID,23.5186,VALID,109,VALID,0.55625,
2012-04-02, 03:03:04,VALID,1010.6,VALID,0,VALID,104,VALID,0,VALID,23.5186,VALID,121,VALID,1.02852,
2012-04-02, 03:04:04,VALID,1010.6,VALID,0,VALID,104,VALID,0,VALID,23.5186,VALID,108,VALID,0.391016,
2012-04-02, 03:05:04,VALID,1010.58,VALID,0,VALID,104,VALID,0,VALID,23.5186,VALID,108,VALID,0.147266,
2012-04-02, 03:06:04,VALID,1010.56,VALID,0,VALID,104,VALID,0,VALID,23.4992,VALID,104,VALID,0.492188,
2012-04-02, 03:07:04,VALID,1010.52,VALID,0,VALID,104,VALID,0,VALID,23.4992,VALID,83,VALID,0.424609,
2012-04-02, 03:08:04,VALID,1010.52,VALID,0,VALID,104,VALID,0.112112,VALID,23.4779,VALID,83,VALID,0.557813,
2012-04-02, 03:09:04,VALID,1010.49,VALID,0,VALID,104,VALID,0,VALID,23.4992,VALID,83,VALID,0.559766,
2012-04-02, 03:10:04,VALID,1010.5,VALID,0,VALID,104,VALID,0,VALID,23.4974,VALID,83,VALID,0.517969,
2012-04-02, 03:11:04,VALID,1010.45,VALID,0,VALID,104,VALID,0,VALID,23.4584,VALID,83,VALID,0.457031,
2012-04-02, 03:12:04,VALID,1010.45,VALID,0,VALID,104,VALID,0.112112,VALID,23.4779,VALID,63,VALID,0.548047,
2012-04-02, 03:13:04,VALID,1010.45,VALID,0,VALID,104,VALID,0.112112,VALID,23.4584,VALID,58,VALID,0.777734,
2012-04-02, 03:14:04,VALID,1010.46,VALID,0,VALID,104,VALID,0.112112,VALID,23.4389,VALID,38,VALID,0.832422,
2012-04-02, 03:15:04,VALID,1010.45,VALID,0,VALID,104,VALID,0.112112,VALID,23.4584,VALID,58,VALID,0.56875,
2012-04-02, 03:16:04,VALID,1010.48,VALID,0,VALID,104,VALID,0.112112,VALID,23.4389,VALID,58,VALID,0.177734,
2012-04-02, 03:17:04,VALID,1010.45,VALID,0,VALID,104,VALID,0.112112,VALID,23.4602,VALID,58,VALID,0.172656,
2012-04-02, 03:18:04,VALID,1010.45,VALID,0,VALID,104,VALID,0,VALID,23.4407,VALID,58,VALID,0.317969,
2012-04-02, 03:19:04,VALID,1010.45,VALID,0,VALID,104,VALID,0,VALID,23.4,VALID,58,VALID,0.16875,
2012-04-02, 03:20:04,VALID,1010.46,VALID,0,VALID,104,VALID,0,VALID,23.4017,VALID,58,VALID,0.173438,
2012-04-02, 03:21:04,VALID,1010.5,VALID,0,VALID,104,VALID,0,VALID,23.3823,VALID,58,VALID,0.0261719,
2012-04-02, 03:22:04,VALID,1010.5,VALID,0,VALID,104,VALID,0,VALID,23.3628,VALID,58,VALID,0.291016,
2012-04-02, 03:23:04,VALID,1010.49,VALID,0,VALID,104,VALID,0,VALID,23.3628,VALID,58,VALID,0,
2012-04-02, 03:24:04,VALID,1010.48,VALID,0,VALID,104,VALID,0,VALID,23.3433,VALID,58,VALID,0,
2012-04-02, 03:25:04,VALID,1010.54,VALID,0,VALID,104,VALID,0,VALID,23.3645,VALID,58,VALID,0,
2012-04-02, 03:26:04,VALID,1010.53,VALID,0,VALID,104,VALID,0,VALID,23.3238,VALID,58,VALID,0,
2012-04-02, 03:27:04,VALID,1010.52,VALID,0,VALID,104,VALID,0,VALID,23.3238,VALID,58,VALID,0,
2012-04-02, 03:28:04,VALID,1010.55,VALID,0,VALID,104,VALID,0,VALID,23.3238,VALID,58,VALID,0.191016,
2012-04-02, 03:29:04,VALID,1010.56,VALID,0,VALID,104,VALID,0,VALID,23.3043,VALID,58,VALID,0.0734375,
2012-04-02, 03:30:04,VALID,1010.58,VALID,0,VALID,104,VALID,0,VALID,23.2848,VALID,58,VALID,0.111719,
2012-04-02, 03:31:04,VALID,1010.55,VALID,0,VALID,104,VALID,0,VALID,23.2848,VALID,58,VALID,0,
2012-04-02, 03:32:04,VALID,1010.53,VALID,0,VALID,104,VALID,0,VALID,23.2654,VALID,58,VALID,0,
2012-04-02, 03:33:04,VALID,1010.51,VALID,0,VALID,104,VALID,0,VALID,23.2654,VALID,58,VALID,0,
2012-04-02, 03:34:04,VALID,1010.51,VALID,0,VALID,104,VALID,0,VALID,23.2654,VALID,58,VALID,0.399609,
2012-04-02, 03:35:04,VALID,1010.48,VALID,0,VALID,104,VALID,0,VALID,23.2654,VALID,58,VALID,0.288281,
2012-04-02, 03:36:04,VALID,1010.52,VALID,0,VALID,104,VALID,0,VALID,23.2848,VALID,147,VALID,0.845312,
2012-04-02, 03:37:04,VALID,1010.53,VALID,0,VALID,104,VALID,0,VALID,23.2848,VALID,157,VALID,0.801172,
2012-04-02, 03:38:04,VALID,1010.54,VALID,0,VALID,104,VALID,0,VALID,23.3061,VALID,159,VALID,0.712109,
2012-04-02, 03:39:04,VALID,1010.56,VALID,0,VALID,104,VALID,0,VALID,23.3256,VALID,168,VALID,0.695703,
2012-04-02, 03:40:04,VALID,1010.57,VALID,0,VALID,104,VALID,0,VALID,23.3451,VALID,177,VALID,0.751172,
2012-04-02, 03:41:04,VALID,1010.57,VALID,0,VALID,104,VALID,0,VALID,23.3238,VALID,199,VALID,1.0125,
2012-04-02, 03:42:04,VALID,1010.56,VALID,0,VALID,104,VALID,0,VALID,23.3433,VALID,189,VALID,0.828125,
2012-04-02, 03:43:04,VALID,1010.5,VALID,0,VALID,104,VALID,0,VALID,23.3433,VALID,189,VALID,0.830859,
2012-04-02, 03:44:04,VALID,1010.46,VALID,0,VALID,104,VALID,0,VALID,23.3628,VALID,189,VALID,0.635938,
2012-04-02, 03:45:04,VALID,1010.43,VALID,0,VALID,104,VALID,0,VALID,23.3433,VALID,181,VALID,0.374219,
2012-04-02, 03:46:04,VALID,1010.42,VALID,0,VALID,104,VALID,0,VALID,23.3415,VALID,181,VALID,0.138281,
2012-04-02, 03:47:04,VALID,1010.38,VALID,0,VALID,104,VALID,0,VALID,23.3628,VALID,181,VALID,0.0484375,
2012-04-02, 03:48:04,VALID,1010.38,VALID,0,VALID,104,VALID,0,VALID,23.3628,VALID,181,VALID,0,
2012-04-02, 03:49:04,VALID,1010.38,VALID,0,VALID,104,VALID,0,VALID,23.3628,VALID,181,VALID,0.181641,
2012-04-02, 03:50:04,VALID,1010.37,VALID,0,VALID,104,VALID,0,VALID,23.3628,VALID,181,VALID,0.191016,
2012-04-02, 03:51:04,VALID,1010.35,VALID,0,VALID,104,VALID,0,VALID,23.3628,VALID,175,VALID,0.436328,
2012-04-02, 03:52:04,VALID,1010.36,VALID,0,VALID,104,VALID,0,VALID,23.3823,VALID,143,VALID,0.759766,
2012-04-02, 03:53:04,VALID,1010.38,VALID,0,VALID,104,VALID,0,VALID,23.4017,VALID,122,VALID,0.463281,